Litchfield, IL

1:17 PM CST on December 14, 2017 (GMT -0600)
Litchfield

Weather History for K3LF - December, 2013

Change the Weather History Date:

Tuesday, December 3, 2013

  Actual Average (KALN) Record (KALN)
Temperature  
Mean Temperature 47 °F -  
Max Temperature 53 °F 46 °F 73 °F (1998)
Min Temperature 41 °F 32 °F 17 °F (2006)
Degree Days  
Heating Degree Days 18    
Moisture  
Dew Point 47 °F    
Average Humidity 98    
Maximum Humidity 100    
Minimum Humidity 89    
Precipitation  
Precipitation 0.03 in - - ()
Sea Level Pressure  
Sea Level Pressure 29.69 in    
Wind  
Wind Speed 9 mph (SSE)    
Max Wind Speed 16 mph    
Max Gust Speed 20 mph    
Visibility 2 miles    
Events Fog    
Averages and records for this station are not official NWS values.
T = Trace of Precipitation, MM = Missing Value Source: NWS Daily Summary

Daily Weather History Graph

Daily Weather History Graph

Search for Another Location

Airport or City:

Trip Planner

Search our weather history database for the weather conditions in past years. The results will help you decide how hot, cold, wet, or windy it might be!

Date:

Astronomy

Dec. 03, 2013 Rise Set
Actual Time 7:01 AM CST 4:35 PM CST
Civil Twilight 6:31 AM CST 5:05 PM CST
Nautical Twilight 5:58 AM CST 5:38 PM CST
Astronomical Twilight 5:25 AM CST 6:11 PM CST
Moon 7:30 AM CST (12/3) 5:39 PM CST (12/3)
Length of Visible Light 10h 34m
Length of Day
9h 34m
New Moon, 1% of the Moon is Illuminated
Dec 3
New Moon
Dec 9
First Quarter
Dec 17
Full
Dec 25
Last Quarter
Jan 1
New

Hourly Weather History & Observations

Time (CST) Temp. Windchill Dew Point Humidity Pressure Visibility Wind Dir Wind Speed Gust Speed Precip Events Conditions
12:15 AM 41.5 °F 37.8 °F 41.4 °F 99% 29.70 in 2.0 mi South 5.8 mph - N/A   Clear
12:35 AM 41.9 °F 37.5 °F 41.9 °F 100% 29.70 in 1.5 mi South 6.9 mph - N/A   Mist
12:55 AM 43.2 °F 38.4 °F 43.2 °F 100% 29.69 in 1.5 mi SSE 8.1 mph - N/A   Mist
1:15 AM 43.2 °F 39.0 °F 43.0 °F 99% 29.70 in 1.5 mi SSE 6.9 mph - N/A   Mist
1:35 AM 42.8 °F 38.0 °F 42.8 °F 100% 29.69 in 1.0 mi SSE 8.1 mph - N/A   Mostly Cloudy
1:55 AM 43.0 °F 38.8 °F 43.0 °F 100% 29.69 in 0.5 mi SSE 6.9 mph - N/A Fog Fog
2:15 AM 43.3 °F 39.2 °F 43.3 °F 100% 29.69 in 0.2 mi SSE 6.9 mph - N/A Fog Fog
2:35 AM 43.2 °F 38.4 °F 43.2 °F 100% 29.68 in 0.2 mi SSE 8.1 mph - N/A Fog Fog
2:55 AM 43.7 °F 39.1 °F 43.7 °F 100% 29.68 in 0.2 mi SSE 8.1 mph - N/A Fog Fog
3:15 AM 43.9 °F 37.9 °F 43.9 °F 100% 29.67 in 0.2 mi SSE 11.5 mph - N/A Fog Fog
3:35 AM 44.1 °F 38.1 °F 44.1 °F 100% 29.67 in 0.2 mi SSE 11.5 mph - N/A Fog Fog
3:55 AM 44.6 °F 39.2 °F 44.6 °F 100% 29.67 in 0.2 mi SSE 10.4 mph - N/A Fog Fog
4:15 AM 44.6 °F 40.2 °F 44.6 °F 100% 29.67 in 0.2 mi SSE 8.1 mph - N/A Fog Fog
4:35 AM 44.6 °F 39.7 °F 44.6 °F 100% 29.67 in 0.2 mi SSE 9.2 mph - N/A Fog Fog
4:55 AM 44.6 °F 40.2 °F 44.6 °F 100% 29.67 in 0.2 mi SSE 8.1 mph - N/A Fog Fog
5:15 AM 44.6 °F 39.7 °F 44.6 °F 100% 29.66 in 0.2 mi SSE 9.2 mph - N/A Fog Fog
5:35 AM 44.1 °F 40.1 °F 44.1 °F 100% 29.67 in 0.2 mi South 6.9 mph - N/A Fog Fog
5:55 AM 44.2 °F 39.2 °F 44.2 °F 100% 29.69 in 0.2 mi South 9.2 mph - N/A Fog Fog
6:15 AM 44.1 °F 39.5 °F 44.1 °F 100% 29.70 in 0.2 mi South 8.1 mph - N/A Fog Fog
6:35 AM 44.1 °F 39.5 °F 44.1 °F 100% 29.70 in 0.2 mi South 8.1 mph - N/A Fog Fog
6:55 AM 43.9 °F 39.9 °F 43.9 °F 100% 29.70 in 0.2 mi South 6.9 mph - N/A Fog Fog
7:15 AM 43.9 °F 39.3 °F 43.9 °F 100% 29.71 in 0.2 mi SSE 8.1 mph - N/A Fog Fog
7:35 AM 44.2 °F 39.7 °F 44.2 °F 100% 29.71 in 0.2 mi SSE 8.1 mph - N/A Fog Fog
7:55 AM 44.6 °F 40.2 °F 44.6 °F 100% 29.71 in 0.2 mi SSE 8.1 mph - N/A Fog Fog
8:15 AM 45.3 °F 41.1 °F 45.3 °F 100% 29.71 in 0.2 mi SSE 8.1 mph - N/A Fog Fog
8:35 AM 45.9 °F 41.2 °F 45.9 °F 100% 29.71 in 0.2 mi SSE 9.2 mph - N/A Fog Fog
8:55 AM 46.4 °F 41.1 °F 46.4 °F 100% 29.71 in 0.2 mi SSE 11.5 mph - N/A Fog Fog
9:15 AM 46.6 °F - 46.6 °F 100% 29.71 in 0.5 mi SSE 11.5 mph - N/A Fog Fog
9:35 AM 47.3 °F - 47.3 °F 100% 29.70 in 0.5 mi SSE 12.7 mph - N/A Fog Fog
9:55 AM 47.5 °F - 47.5 °F 100% 29.70 in 0.5 mi SSE 13.8 mph 17.3 mph N/A Fog Fog
10:15 AM 47.7 °F - 47.7 °F 100% 29.70 in 1.0 mi South 12.7 mph - N/A   Overcast
10:35 AM 48.2 °F - 48.2 °F 100% 29.70 in 1.5 mi South 13.8 mph - N/A   Overcast
10:55 AM 48.6 °F - 48.6 °F 100% 29.70 in 0.8 mi South 13.8 mph 19.6 mph N/A   Overcast
11:15 AM 49.1 °F - 49.1 °F 100% 29.69 in 0.5 mi South 10.4 mph - N/A Fog Fog
11:35 AM 49.3 °F - 49.3 °F 100% 29.69 in 0.8 mi South 11.5 mph - N/A   Overcast
11:55 AM 49.6 °F - 49.6 °F 100% 29.69 in 1.5 mi South 15.0 mph - N/A   Overcast
12:15 PM 50.4 °F - 50.4 °F 100% 29.69 in 2.5 mi South 15.0 mph - N/A   Overcast
12:35 PM 50.5 °F - 50.5 °F 100% 29.68 in 2.0 mi SSE 11.5 mph - N/A   Overcast
12:55 PM 50.9 °F - 50.9 °F 100% 29.68 in 3.0 mi SSE 11.5 mph - N/A   Overcast
1:15 PM 51.8 °F - 50.9 °F 97% 29.67 in 3.0 mi South 9.2 mph - 0.03 in   Overcast
1:35 PM 52.3 °F - 50.9 °F 95% 29.68 in 4.0 mi South 12.7 mph - 0.03 in   Overcast
1:55 PM 52.3 °F - 50.9 °F 95% 29.68 in 4.0 mi South 11.5 mph - 0.03 in   Overcast
2:15 PM 52.7 °F - 50.9 °F 94% 29.67 in 4.0 mi South 13.8 mph - N/A   Overcast
2:35 PM 53.4 °F - 51.3 °F 92% 29.67 in 4.0 mi South 13.8 mph - N/A   Overcast
2:55 PM 53.8 °F - 50.9 °F 90% 29.67 in 5.0 mi South 15.0 mph - N/A   Mostly Cloudy
3:15 PM 53.6 °F - 50.9 °F 91% 29.68 in 5.0 mi South 12.7 mph - N/A   Mostly Cloudy
3:35 PM 53.6 °F - 50.5 °F 89% 29.67 in 5.0 mi SSE 11.5 mph 17.3 mph N/A   Mostly Cloudy
3:55 PM 53.6 °F - 50.5 °F 89% 29.64 in 5.0 mi SSE 13.8 mph - N/A   Scattered Clouds
4:15 PM 52.7 °F - 50.0 °F 91% 29.64 in 5.0 mi SSE 13.8 mph - N/A   Clear
4:35 PM 52.2 °F - 49.3 °F 90% 29.64 in 5.0 mi SSE 12.7 mph - N/A   Clear
4:55 PM 51.4 °F - 49.1 °F 92% 29.65 in 5.0 mi SSE 12.7 mph - N/A   Clear
5:15 PM 51.1 °F - 48.7 °F 92% 29.65 in 5.0 mi SSE 11.5 mph - N/A   Clear
5:35 PM 50.4 °F - 48.2 °F 92% 29.66 in 5.0 mi SSE 10.4 mph - N/A   Clear
5:55 PM 50.4 °F - 48.4 °F 93% 29.66 in 5.0 mi SSE 12.7 mph - N/A   Clear
6:15 PM 50.9 °F - 48.7 °F 92% 29.67 in 5.0 mi South 16.1 mph - N/A   Clear
6:35 PM 50.9 °F - 49.1 °F 94% 29.68 in 5.0 mi South 15.0 mph - N/A   Clear
6:55 PM 50.9 °F - 49.1 °F 94% 29.69 in 5.0 mi South 13.8 mph - N/A   Clear
7:15 PM 50.0 °F - 48.4 °F 94% 29.69 in 4.0 mi SSE 10.4 mph - N/A   Clear
7:35 PM 49.3 °F - 48.2 °F 96% 29.69 in 4.0 mi SSE 9.2 mph - N/A   Clear
7:55 PM 48.4 °F - 47.5 °F 97% 29.70 in 3.0 mi South 9.2 mph - N/A   Clear
8:15 PM 48.2 °F - 47.3 °F 97% 29.70 in 3.0 mi South 8.1 mph - N/A   Clear
8:35 PM 47.5 °F - 46.8 °F 97% 29.70 in 3.0 mi South 8.1 mph - N/A   Clear
8:55 PM 47.3 °F - 46.8 °F 98% 29.69 in 3.0 mi SSE 6.9 mph - N/A   Clear
9:15 PM 47.7 °F - 47.3 °F 99% 29.69 in 3.0 mi SSE 8.1 mph - N/A   Clear
9:35 PM 47.3 °F - 46.8 °F 98% 29.71 in 3.0 mi SSE 4.6 mph - N/A   Clear
9:55 PM 45.5 °F 42.5 °F 45.3 °F 99% 29.70 in 1.5 mi SE 5.8 mph - N/A   Mist
10:14 PM 46.4 °F 42.9 °F 46.4 °F 100% 29.69 in 1.5 mi SE 6.9 mph - N/A   Mist
10:15 PM 46.0 °F 42.5 °F 46.0 °F 100% 29.69 in 1.5 mi SE 6.9 mph - N/A   Mist
10:34 PM 46.4 °F 42.4 °F 46.4 °F 100% 29.69 in 2.5 mi SE 8.1 mph - N/A   Clear
10:35 PM 46.6 °F - 46.4 °F 99% 29.69 in 2.5 mi SE 8.1 mph - N/A   Clear
10:54 PM 46.4 °F 42.9 °F 46.4 °F 100% 29.68 in 3.0 mi SE 6.9 mph - N/A   Clear
10:55 PM 46.2 °F 42.7 °F 45.9 °F 99% 29.68 in 3.0 mi SE 6.9 mph - N/A   Clear
11:14 PM 44.6 °F 41.4 °F 44.6 °F 100% 29.69 in 3.0 mi SSE 5.8 mph - N/A   Clear
11:15 PM 45.1 °F 42.0 °F 44.8 °F 99% 29.69 in 3.0 mi SSE 5.8 mph - N/A   Clear
11:34 PM 46.4 °F 42.9 °F 44.6 °F 93% 29.69 in 4.0 mi SSE 6.9 mph - N/A   Clear
11:35 PM 45.5 °F 41.8 °F 45.0 °F 98% 29.69 in 4.0 mi SSE 6.9 mph - N/A   Clear
11:54 PM 46.4 °F 42.9 °F 44.6 °F 93% 29.69 in 5.0 mi SSE 6.9 mph - N/A   Clear
11:55 PM 45.9 °F 42.3 °F 45.0 °F 97% 29.69 in 5.0 mi SSE 6.9 mph - N/A   Clear